Regional Weather Roundup
Issued by NWS Newport/Morehead, NC

Current Version | Previous Version | Graphics & Text | Print | Product List | Glossary Off
Versions: 1 2 3 4 5 6 7 8 9 10 11 12 13 14 15 16 17 18 19 20 21 22 23 24 25 26 27 28 29 30 31 32 33 34 35 36 37 38 39 40 41 42 43 44 45 46 47 48 49 50
000 ASUS42 KMHX 281225 RWRMHX WEATHER ROUNDUP FOR EASTERN NORTH CAROLINA NATIONAL WEATHER SERVICE NEWPORT/MOREHEAD CITY NC 800 AM EDT FRI JUL 28 2017 NOTE: "FAIR" INDICATES FEW OR NO CLOUDS BELOW 12,000 FEET WITH NO SIGNIFICANT WEATHER AND/OR OBSTRUCTIONS TO VISIBILITY NCZ015>017-031-032-045>047-102-103-281300- NORTH COAST CITY SKY/WX TMP DP RH WIND PRES REMARKS EDENTON LGT RAIN 78 75 88 W7 29.88R ELIZABETH CITY RAIN 75 74 96 S8 29.88R FOG KITTY HAWK LGT RAIN 76 73 90 CALM 29.88S MANTEO CLOUDY 77 73 86 CALM 29.89R $$ NCZ045>047-081-094-103-104-281300- CENTRAL COAST CITY SKY/WX TMP DP RH WIND PRES REMARKS FRISCO PTSUNNY 81 77 88 SW9 29.89F $$ NCZ095-097-098-100-101-281300- SOUTHERN COAST CITY SKY/WX TMP DP RH WIND PRES REMARKS BEAUFORT MOSUNNY 82 77 84 SW10 29.90S CEDAR ISLAND NOT AVBL JACKSONVILLE CLOUDY 77 77 100 SW7 29.90S PINEY ISLAND CLOUDY N/A N/A N/A SW9 29.89F WILMINGTON PTSUNNY 77 76 96 SW3 29.90F $$ NCZ011>013-027>030-043-044-078>080-089-090>093-098-281300- COASTAL PLAIN CITY SKY/WX TMP DP RH WIND PRES REMARKS AHOSKIE N/A 71 70 98 CALM 29.88S CLINTON CLOUDY 75 75 100 SW3 29.90F ELIZABETHTOWN NOT AVBL GOLDSBORO CLOUDY 76 76 100 SW8 29.87F GREENVILLE CLOUDY 77 73 88 SW6 29.91R HAVELOCK PTSUNNY 78 74 87 SW9 29.91S KENANSVILLE CLOUDY 75 73 94 SW7 29.90S FOG KINSTON CLOUDY 77 73 88 SW8 29.90S NEW BERN CLOUDY 76 75 97 SW5 29.91R RICHLANDS PTSUNNY 75 75 100 S8 29.90F ROCKY MOUNT CLOUDY 77 75 93 SW7 29.87S WASHINGTON CLOUDY 77 73 88 SW8 29.89R WHITEVILLE CLOUDY 76 74 95 S3 29.91S $$ AMZ130-135-150-152-154-156-158-170-250-252-270-ANZ085-086-088-633-658-670-281300- MARINE OBSERVATIONS STATION/POSITION TIME TEMP WIND PRES WAVE SWELL AIR SEA DIR/SP/G HT/PER HT/PER (UTC) (F) (DEG/KT/KT) (MB) (FT/S) (FT/S) CHESAPEAKE LIGHT NOT AVBL 64 E VA BEACH 1150 74 76 220/ 16/ 19 1012.3 4/ 5 2/ 8 DUCK 1200 75 62 310/ 5/ 5 1011.8 2 E DUCK 1200 67 N/A 2/ 8 OREGON INLET 1200 80 79 220/ 14/ 16 1011.5 13E OREGON INLT 1148 76 N/A 3/ 4 2/ 8 HATTERAS CG 1200 79 80 230/ 7/ 9 1012.1 DIAMOND BUOY 1150 81 83 240/ 16/ 17 1012.1 3/ 8 2/ 8 CAPE LOOKOUT 1200 80 260/ 11/ 13 1012.2 BEAUFORT LAB 1200 81 80 250/ 6/ 12 1011.9 30 SE NEW RVR IN 1208 81 83 260/ 12/ 14 1012.9 30 SE NEW RVR IN 1143 83 N/A 3/ 4 27 SE WRIGHTSVLE 1208 79 82 210/ 10/ 16 1012.9 5 SE WRIGHTSVLE 1208 80 81 230/ 8/ 12 1012.5 225 S CAPE HAT 1150 83 83 230/ 12/ 14 1014.5 2/ 7 2/ 7 41 SE CHARLESTON 1210 80 81 200/ 14/ 16 1012.1 $$

USA.gov is the U.S. government's official web portal to all federal, state and local government web resources and services.